Location: Arroyo Retuerta
(40.5469°N, 4.3534°W)
Time: 12:26:00
(UTC+00:00)

IGS 5A - Pass Details

Date: 01 June 2020
Orbit: 585 x 587 km, 97.6° (Epoch: 02 July)

Event Time Altitude Azimuth Distance (km) Brightness Sun altitude
Exits shadow 21:31:56 29° 167° (SSE) 1,075 4.3 -16.6°
Maximum altitude 21:33:59 89° 264° (W) 592 3.4 -16.9°
Drops below altitude 10° 21:38:09 10° 348° (NNW) 1,918 7.1 -17.4°
Sets 21:40:19 0° 348° (NNW) 2,823 8.1 -17.6°
